Weather History for Rexburg, ID

Change the Weather History Date:

Friday, September 14, 2012

  Actual Average Record
Temperature  
Mean Temperature 60 °F 56 °F  
Max Temperature 83 °F 72 °F 88 °F (2000)
Min Temperature 36 °F 40 °F 30 °F (2003)
Degree Days  
Heating Degree Days 5 9  
Month to date heating degree days 69 92  
Since 1 July heating degree days 76 165  
Cooling Degree Days 0 0  
Month to date cooling degree days 0 5  
Year to date cooling degree days 419 207  
Growing Degree Days 9 (Base 50)    
Moisture  
Dew Point 26 °F    
Average Humidity 45    
Maximum Humidity 82    
Minimum Humidity 8    
Precipitation  
Precipitation 0.00 in 0.03 in 0.25 in (1980)
Month to date precipitation 0.30 0.41  
Year to date precipitation 6.61 9.33  
Sea Level Pressure  
Sea Level Pressure 30.26 in    
Wind  
Wind Speed 4 mph (East)    
Max Wind Speed 13 mph    
Max Gust Speed 17 mph    
Visibility 10 miles    
Events      
T = Trace of Precipitation, MM = Missing Value Source: NWS Daily Summary

Daily Weather History Graph

Daily Weather History Graph

Search for Another Location

Airport:

Trip Planner

Search our weather history database for the weather conditions in past years. The results will help you decide how hot, cold, wet, or windy it might be!

Date:

Astronomy

Sep. 14, 2012 Rise Set
Actual Time 7:05 AM MDT 7:38 PM MDT
Civil Twilight 6:37 AM MDT 8:07 PM MDT
Nautical Twilight 6:02 AM MDT 8:41 PM MDT
Astronomical Twilight 5:27 AM MDT 9:16 PM MDT
Moon 5:32 AM MDT (9/14) 6:37 PM MDT (9/14)
Length of Visible Light 13h 30m
Length of Day
12h 32m
Waning Crescent, 2% of the Moon is Illuminated
Sep 14
Waning Crescent
Sep 15
New
Sep 22
First Quarter
Sep 29
Full
Oct 8
Last Quarter

Hourly Weather History & Observations

Time (MDT) Temp. Windchill Dew Point Humidity Pressure Visibility Wind Dir Wind Speed Gust Speed Precip Events Conditions
12:53 AM 44.1 °F 41.5 °F 32.0 °F 63% 30.35 in 10.0 mi NE 4.6 mph - N/A   Clear
1:53 AM 43.0 °F 40.3 °F 32.0 °F 65% 30.35 in 10.0 mi NE 4.6 mph - N/A   Clear
2:53 AM 41.0 °F 36.4 °F 30.9 °F 67% 30.34 in 10.0 mi ENE 6.9 mph - N/A   Clear
3:53 AM 39.9 °F 36.7 °F 30.9 °F 70% 30.32 in 10.0 mi NE 4.6 mph - N/A   Clear
4:53 AM 37.9 °F 35.5 °F 28.9 °F 70% 30.32 in 10.0 mi NE 3.5 mph - N/A   Clear
6:53 AM 36.0 °F - 30.0 °F 79% 30.34 in 10.0 mi Calm Calm - N/A   Clear
7:53 AM 37.0 °F - 30.9 °F 79% 30.37 in 10.0 mi Calm Calm - N/A   Clear
8:53 AM 43.0 °F - 28.9 °F 58% 30.38 in - Calm Calm - N/A   Clear
9:53 AM 50.0 °F - 30.9 °F 48% 30.37 in 10.0 mi Calm Calm - N/A   Clear
10:53 AM 59.0 °F - 35.1 °F 41% 30.35 in 10.0 mi Calm Calm - N/A   Clear
11:53 AM 68.0 °F - 30.9 °F 25% 30.31 in 10.0 mi Calm Calm - N/A   Clear
12:53 PM 73.9 °F - 30.0 °F 20% 30.28 in 10.0 mi Calm Calm - N/A   Clear
1:53 PM 78.1 °F - 24.1 °F 14% 30.25 in 10.0 mi SW 8.1 mph - N/A   Clear
2:53 PM 80.1 °F - 19.9 °F 11% 30.22 in 10.0 mi SSW 10.4 mph - N/A   Clear
3:53 PM 80.1 °F - 15.1 °F 9% 30.19 in 10.0 mi WSW 6.9 mph - N/A   Clear
4:53 PM 82.0 °F - 16.0 °F 8% 30.17 in 10.0 mi Variable 6.9 mph - N/A   Clear
5:53 PM 81.0 °F - 12.9 °F 8% 30.15 in 10.0 mi South 10.4 mph - N/A   Clear
6:53 PM 78.1 °F - 19.0 °F 11% 30.16 in 10.0 mi SSW 4.6 mph - N/A   Clear
7:53 PM 69.1 °F - 21.9 °F 17% 30.17 in 10.0 mi South 3.5 mph - N/A   Clear
8:53 PM 66.0 °F - 17.1 °F 15% 30.16 in 10.0 mi South 5.8 mph - N/A   Clear
9:53 PM 55.9 °F - 30.9 °F 39% 30.17 in 10.0 mi North 3.5 mph - N/A   Clear
10:53 PM 52.0 °F - 30.0 °F 43% 30.17 in 10.0 mi NNE 5.8 mph - N/A   Clear
11:53 PM 48.9 °F - 30.9 °F 50% 30.15 in 10.0 mi NNE 4.6 mph - N/A   Clear